Weather History for St. Kitts, Saint Kitts and Nevis

Change the Weather History Date:

Friday, March 29, 2013

  Actual Average Record
Temperature  
Mean Temperature 79 °F -  
Max Temperature 84 °F 83 °F 86 °F (2002)
Min Temperature 74 °F 74 °F 71 °F (1997)
Cooling Degree Days 14    
Growing Degree Days 29 (Base 50)    
Moisture  
Dew Point 73 °F    
Average Humidity 78    
Maximum Humidity 89    
Minimum Humidity 62    
Precipitation  
Precipitation 0.01 in - - ()
Sea Level Pressure  
Sea Level Pressure 30.03 in    
Wind  
Wind Speed 10 mph ()    
Max Wind Speed 15 mph    
Max Gust Speed -    
Visibility 7.5 miles    
Events Rain    
Averages and records for this station are not official NWS values.
T = Trace of Precipitation, MM = Missing Value Source: Averaged Metar Reports

Daily Weather History Graph

Daily Weather History Graph

Search for Another Location

Airport:

Trip Planner

Search our weather history database for the weather conditions in past years. The results will help you decide how hot, cold, wet, or windy it might be!

Date:

Astronomy

Mar. 29, 2013 Rise Set
Actual Time 6:07 AM AST 6:23 PM AST
Civil Twilight 5:45 AM AST 6:45 PM AST
Nautical Twilight 5:20 AM AST 7:10 PM AST
Astronomical Twilight 4:55 AM AST 7:35 PM AST
Moon 8:48 PM AST 7:38 AM AST
Length of Visible Light 12h 59m
Length of Day
12h 15m
Waning Gibbous, 93% of the Moon is Illuminated
Mar 29
Waning Gibbous
Apr 3
Last Quarter
Apr 10
New
Apr 18
First Quarter
Apr 25
Full

Hourly Weather History & Observations

Time (AST) Temp. Heat Index Dew Point Humidity Pressure Visibility Wind Dir Wind Speed Gust Speed Precip Events Conditions
6:00 AM 77.0 °F - 73.4 °F 89% 30.01 in 6.2 mi ENE 8.1 mph - N/A   Mostly Cloudy
7:00 AM 78.8 °F - 73.4 °F 83% 30.01 in 6.2 mi NE 12.7 mph - N/A   Scattered Clouds
8:00 AM 79 °F - 73 °F 78% 30.05 in 18 mi NE 12.7 mph - -   Partly Cloudy
8:00 AM 78.8 °F - 73.4 °F 83% 30.04 in 6.2 mi NE 12.7 mph - N/A   Scattered Clouds
9:00 AM 80.6 °F 85.4 °F 73.4 °F 79% 30.04 in 6.2 mi NE 13.8 mph - N/A   Scattered Clouds
10:00 AM 80.6 °F 85.4 °F 73.4 °F 79% 30.06 in 6.2 mi NE 15.0 mph - N/A Rain Light Rain Showers
11:00 AM 83 °F - 74 °F 68% 30.07 in 17 mi ENE 13.8 mph - - Rain Light Rain Showers
11:00 AM 82.4 °F 88.2 °F 73.4 °F 74% 30.06 in 6.2 mi ENE 13.8 mph - N/A   Scattered Clouds
12:00 PM 84.2 °F 90.9 °F 73.4 °F 70% 30.04 in 6.2 mi ENE 12.7 mph - N/A   Unknown
1:00 PM 84.2 °F 90.9 °F 73.4 °F 70% 30.04 in 6.2 mi ENE 12.7 mph - N/A   Partly Cloudy
2:00 PM 84 °F - 73 °F 62% 30.03 in 22 mi ENE 10.4 mph - -   Partly Cloudy
2:00 PM 84.2 °F 90.9 °F 73.4 °F 70% 30.01 in 6.2 mi ENE 10.4 mph - N/A   Partly Cloudy
3:00 PM 82.4 °F 88.2 °F 73.4 °F 74% 30.01 in 6.2 mi NE 12.7 mph - N/A Rain Light Rain Showers
4:00 PM 80.6 °F 85.4 °F 73.4 °F 79% 30.01 in 6.2 mi NE 13.8 mph - N/A   Partly Cloudy
5:00 PM 81 °F - 72 °F 69% 30.02 in 22 mi NNE 6.9 mph - -   Scattered Clouds
5:00 PM 80.6 °F 85.4 °F 73.4 °F 79% 30.01 in 6.2 mi NNE 6.9 mph - N/A   Partly Cloudy
6:00 PM 77.0 °F - 73.4 °F 89% 30.01 in 6.2 mi NE 9.2 mph - N/A   Scattered Clouds
7:00 PM 77.0 °F - 73.4 °F 89% 30.04 in 6.2 mi NE 11.5 mph - N/A   Partly Cloudy
8:00 PM 77 °F - 73 °F 84% 30.06 in 22 mi NNE 9.2 mph - -   Scattered Clouds
8:00 PM 77.0 °F - 73.4 °F 89% 30.04 in 6.2 mi NNE 9.2 mph - N/A   Partly Cloudy
9:00 PM 77.0 °F - 71.6 °F 83% 30.06 in 6.2 mi NNE 11.5 mph - N/A   Scattered Clouds